Location: Cahas Mountain Overlook
(37.0833°N, 80.1000°W)
Time: 23:58:11
(UTC-05:00)

Explorer 7 - All Passes

Search period start: 28 November 2023 00:00
Search period end: 08 December 2023 00:00
Orbit: 472 x 641 km, 50.3° (Epoch: 28 November)

Date Brightness Start Highest point End Pass type
(mag) Time Alt. Az. Time Alt. Az. Time Alt. Az.
28 Nov - 01:10:00 10° NW 01:14:01 69° SW 01:18:14 10° SE night (unlit)
28 Nov - 16:45:11 10° S 16:48:00 21° SE 16:50:47 10° E daylight
28 Nov - 18:24:09 10° WSW 18:27:40 44° NNW 18:31:15 10° NE visible
28 Nov - 20:06:22 10° NW 20:08:21 14° NNW 20:10:22 10° NNE visible
28 Nov - 21:48:02 10° NNW 21:49:37 12° N 21:51:14 10° NNE night (unlit)
28 Nov - 23:27:05 10° NW 23:30:32 29° NNE 23:34:09 10° E night (unlit)
29 Nov - 01:06:44 10° WNW 01:10:36 46° SW 01:14:40 10° SSE night (unlit)
29 Nov - 16:41:13 10° SSW 16:44:30 31° SE 16:47:47 10° ENE daylight
29 Nov - 18:21:02 10° W 18:24:22 32° NNW 18:27:45 10° NE visible
29 Nov - 20:03:37 10° NW 20:05:13 12° N 20:06:49 10° NNE visible
29 Nov - 21:44:34 10° NNW 21:46:29 13° NNE 21:48:26 10° NE night (unlit)
29 Nov - 23:23:35 10° NW 23:27:15 38° NNE 23:31:05 10° E night (unlit)
30 Nov - 01:03:34 10° WNW 01:07:08 31° SW 01:10:52 10° SSE night (unlit)
30 Nov - 16:37:27 10° SSW 16:41:01 48° SE 16:44:35 10° ENE daylight
30 Nov - 18:18:00 10° W 18:21:05 25° NNW 18:24:11 10° NNE visible
30 Nov - 20:00:50 10° NNW 20:02:03 11° N 20:03:19 10° NNE visible
30 Nov - 21:41:01 10° NNW 21:43:18 15° NNE 21:45:38 10° NE night (unlit)
30 Nov - 23:20:05 10° NW 23:23:54 52° NE 23:27:54 10° ESE night (unlit)
01 Dec - 01:00:33 10° W 01:03:37 21° SW 01:06:47 10° S night (unlit)
01 Dec - 16:33:52 10° SW 16:37:33 76° SE 16:41:14 10° NE daylight
01 Dec - 18:15:03 10° WNW 18:17:48 20° NNW 18:20:34 10° NNE visible
01 Dec - 19:57:53 10° NNW 19:58:54 11° N 19:59:55 10° NNE visible
01 Dec - 21:37:26 10° NNW 21:40:04 18° NNE 21:42:46 10° ENE night (unlit)
01 Dec - 23:16:35 10° NW 23:20:29 76° NE 23:24:33 10° ESE night (unlit)
02 Dec - 00:57:53 10° W 01:00:03 14° SW 01:02:15 10° SSW night (unlit)
02 Dec - 14:52:57 10° SSE 14:54:36 13° SE 14:56:16 10° ESE daylight
02 Dec - 16:30:25 10° WSW 16:34:05 71° NW 16:37:46 10° NE daylight
02 Dec - 18:12:08 10° WNW 18:14:31 16° NNW 18:16:56 10° NNE visible
02 Dec - 19:54:41 10° NNW 19:55:42 11° N 19:56:45 10° NNE visible
02 Dec - 21:33:48 10° NNW 21:36:46 21° NNE 21:39:50 10° ENE night (unlit)
02 Dec - 23:13:08 10° NW 23:17:00 74° SW 23:21:04 10° SE night (unlit)
03 Dec - 14:48:16 10° S 14:50:59 19° SE 14:53:41 10° E daylight
03 Dec - 16:27:03 10° WSW 16:30:39 48° NNW 16:34:12 10° NE daylight
03 Dec - 18:09:15 10° NW 18:11:15 14° NNW 18:13:15 10° NNE visible
03 Dec - 19:51:13 10° NNW 19:52:30 11° N 19:53:46 10° NNE visible
03 Dec - 21:30:10 10° NNW 21:33:25 26° NNE 21:36:47 10° E night (unlit)
03 Dec - 23:09:43 10° WNW 23:13:28 49° SW 23:17:23 10° SSE night (unlit)
04 Dec - 14:44:05 10° SSW 14:47:22 29° SE 14:50:36 10° ENE daylight
04 Dec - 16:23:47 10° W 16:27:12 34° NNW 16:30:36 10° NE daylight
04 Dec - 18:06:24 10° NW 18:07:58 12° N 18:09:33 10° NNE visible
04 Dec - 19:47:36 10° NNW 19:49:14 12° N 19:50:53 10° NE visible
04 Dec - 21:26:31 10° NW 21:30:00 34° NNE 21:33:37 10° E night (unlit)
04 Dec - 23:06:24 10° WNW 23:09:53 32° SW 23:13:31 10° SSE night (unlit)
05 Dec - 14:40:10 10° SSW 14:43:46 44° SE 14:47:18 10° ENE daylight
05 Dec - 16:20:36 10° W 16:23:46 26° NNW 16:26:55 10° NNE daylight
05 Dec - 18:03:31 10° NNW 18:04:42 11° N 18:05:52 10° NNE visible
05 Dec - 19:43:53 10° NNW 19:45:55 14° NNE 19:47:58 10° NE visible
05 Dec - 21:22:52 10° NW 21:26:31 47° NNE 21:30:19 10° ESE night (unlit)
05 Dec - 23:03:13 10° W 23:06:15 22° SW 23:09:22 10° S night (unlit)
06 Dec - 14:36:24 10° SW 14:40:09 69° SE 14:43:50 10° NE daylight
06 Dec - 16:17:29 10° WNW 16:20:20 21° NNW 16:23:11 10° NNE daylight
06 Dec - 18:00:32 10° NNW 18:01:24 11° N 18:02:15 10° N visible
06 Dec - 19:40:09 10° NNW 19:42:34 16° NNE 19:45:00 10° ENE visible
06 Dec - 21:19:14 10° NW 21:23:00 68° NE 21:26:53 10° ESE night (unlit)
06 Dec - 23:00:22 10° W 23:02:33 15° SW 23:04:47 10° SSW night (unlit)
07 Dec - 12:55:38 10° SSE 12:57:06 12° SE 12:58:31 10° ESE daylight
07 Dec - 14:32:46 10° SW 14:36:34 79° NW 14:40:16 10° NE daylight
07 Dec - 16:14:25 10° WNW 16:16:55 17° NNW 16:19:25 10° NNE daylight
07 Dec - 17:57:16 10° N 17:58:04 11° N 17:58:52 10° NNE visible
07 Dec - 19:36:23 10° NNW 19:39:09 19° NNE 19:41:58 10° ENE visible
07 Dec - 21:15:38 10° NW 21:19:23 81° SW 21:23:18 10° SE night (unlit)
